Simultaneous Nadir Overpasses (SNOs) Predictions

Prediction of SNOs between NOAA-20 and AQUA Satellite Orbit:

Table of predicted SNOs for the next 14.0 days since TLE Epoch: 1/11/2019
Index Date (NOAA-20) Time (NOAA-20) Lat,Lon (NOAA-20) SZA (NOAA-20 ) Date (AQUA) Time (AQUA) Lat,Lon (AQUA) SZA (AQUA ) Distance(km) Time Diff (sec)
1 01/13/2019 05:56:22 -75.28, 147.77 60.54 01/13/2019 05:57:10 -75.28, 147.76 60.58 0.24 48
2 01/13/2019 06:46:47 76.16, -42.07 118.44 01/13/2019 06:46:18 76.17, -41.98 118.44 2.86 29
3 01/15/2019 22:13:15 -75.47, -95.87 61.17 01/15/2019 22:13:35 -75.48, -95.79 61.21 2.49 20
4 01/15/2019 23:03:32 76.70, 75.71 117.37 01/15/2019 23:02:36 76.70, 75.67 117.43 1.00 56
5 01/18/2019 13:39:42 74.71,-149.64 119.25 01/18/2019 13:40:52 74.72,-149.59 119.17 1.54 70
6 01/18/2019 14:29:58 -76.13, 22.04 62.40 01/18/2019 14:29:51 -76.12, 22.01 62.38 0.99 7
7 01/21/2019 05:56:21 75.52, -31.50 117.81 01/21/2019 05:57:04 75.51, -31.58 117.80 2.37 43
8 01/21/2019 06:46:50 -76.31, 138.47 63.13 01/21/2019 06:46:15 -76.31, 138.50 63.11 1.12 35
9 01/23/2019 22:13:12 75.80, 85.17 116.93 01/23/2019 22:13:27 75.80, 85.14 116.92 0.88 15




NCC Satellite Simultaneous Nadir Overpasses (SNOs) Prediction Service
